EDT,Max TemperatureF,Mean TemperatureF,Min TemperatureF,Max Dew PointF,MeanDew PointF,Min DewpointF,Max Humidity, Mean Humidity, Min Humidity, Max Sea Level PressureIn, Mean Sea Level PressureIn, Min Sea Level PressureIn, Max VisibilityMiles, Mean VisibilityMiles, Min VisibilityMiles, Max Wind SpeedMPH, Mean Wind SpeedMPH, Max Gust SpeedMPH,PrecipitationIn, CloudCover, Events, WindDirDegrees
2011-10-1,62,55,47,57,52,41,93,85,71,29.80,29.70,29.61,10,8,2,21,9,31,0.24,8,Rain,5
2011-10-2,68,57,46,52,47,42,93,81,48,29.90,29.81,29.74,10,9,2,15,4,20,0.31,6,Rain-Thunderstorm,5
2011-10-3,61,53,44,50,46,41,100,84,53,30.04,29.98,29.89,10,6,0,10,2,15,0.22,5,Fog-Rain,168
2011-10-4,64,57,50,55,51,48,93,85,63,30.05,30.01,29.97,10,8,2,13,2,18,0.17,8,Rain,325
2011-10-5,71,57,42,55,46,37,96,71,31,30.29,30.07,30.00,10,8,0,18,5,28,0.00,1,Fog,328
2011-10-6,68,52,36,46,39,33,93,71,29,30.35,30.31,30.25,10,10,10,8,0,12,0.00,0,,345
2011-10-7,67,52,36,46,39,27,93,74,25,30.48,30.43,30.35,10,10,10,6,1,14,0.00,0,,250
2011-10-8,77,59,41,58,48,40,96,78,43,30.49,30.43,30.37,10,10,8,4,0,,0.00,0,,195
2011-10-9,82,63,44,60,52,43,100,83,40,30.43,30.35,30.27,10,8,1,3,0,6,0.00,0,,70
2011-10-10,82,65,47,62,52,46,100,88,45,30.29,30.24,30.13,10,5,0,5,0,7,0.00,1,Fog,70
2011-10-11,75,65,54,58,54,50,100,74,49,30.23,30.17,30.12,10,8,3,8,0,10,0.00,0,,210
2011-10-12,60,56,52,54,50,45,93,81,55,30.18,30.11,29.98,10,10,7,12,3,15,0.06,4,Rain,64
2011-10-13,65,60,54,61,56,52,100,91,84,29.98,29.83,29.70,10,7,2,8,3,13,0.05,8,Rain,2
2011-10-14,73,65,57,68,63,47,93,88,67,29.65,29.50,29.32,10,8,2,20,7,29,0.68,7,Rain-Thunderstorm,159
2011-10-15,61,57,53,46,41,35,72,55,40,29.71,29.59,29.48,10,10,10,20,10,30,T,4,,220
2011-10-16,65,58,51,44,39,35,68,48,37,29.84,29.75,29.62,10,10,10,20,7,28,T,5,,219
2011-10-17,67,56,44,48,39,30,89,53,26,29.76,29.69,29.62,10,10,10,21,6,28,T,2,Rain,230
2011-10-18,69,56,43,47,42,35,89,67,32,29.89,29.83,29.76,10,10,10,10,1,16,0.00,3,,237
2011-10-19,60,54,48,57,53,45,100,91,77,29.88,29.67,29.44,10,6,2,12,5,16,0.74,7,Rain,9
2011-10-20,71,62,52,63,53,40,93,74,48,29.65,29.42,29.32,10,10,6,20,7,32,0.02,5,Rain,174
2011-10-21,58,52,45,42,40,38,82,60,51,29.98,29.84,29.66,10,10,10,16,7,24,0.00,6,,233
2011-10-22,60,54,47,42,40,38,80,64,46,30.09,30.03,29.98,10,10,10,13,4,17,0.00,7,,251
2011-10-23,60,51,42,45,40,34,89,70,40,30.14,30.10,30.05,10,10,10,9,2,13,0.00,4,,193
2011-10-24,60,50,39,50,44,38,93,78,60,30.11,30.03,29.94,10,9,7,13,3,24,T,3,,184
2011-10-25,62,50,38,48,38,28,96,78,29,30.03,29.98,29.94,10,5,0,20,5,25,T,1,Fog,280
2011-10-26,57,51,44,48,44,39,92,80,71,30.04,29.86,29.71,10,10,10,7,1,13,0.01,7,,324
2011-10-27,51,43,34,46,39,32,92,89,80,29.97,29.73,29.65,10,6,2,18,7,25,0.62,8,Rain-Snow,2
2011-10-28,50,39,28,35,29,26,100,81,39,30.26,30.14,29.99,10,6,0,14,2,16,0.00,1,Fog,358
2011-10-29,42,38,33,34,31,24,96,86,51,30.24,30.04,29.93,10,4,0,18,7,26,0.98,7,Fog-Snow,4
2011-10-30,49,38,26,31,28,22,100,78,37,30.33,30.10,29.93,10,8,1,15,3,24,T,2,Snow,314
2011-10-31,50,36,22,36,28,20,100,85,42,30.41,30.38,30.32,10,6,0,5,0,,0.00,1,Fog,200